GW4592 Weather Reports


Display with metric or nautical units.
time (UTC)temp
F
wind
direction
speed
MPH
gust
MPH
rain 1hr
in
rain 24hr
in
rain mn
in
humidity
%
barometer
mb
20260507095415 75 340 2.0 9.0 0.00 0.00 0.00 57 1018.7
20260507063007 70 320 2.0 5.0 0.00 0.00 0.00 54 1019.9
20260507062504 70 320 2.0 5.0 0.00 0.00 0.00 54 1019.9
20260507062001 70 339 2.0 6.0 0.00 0.00 0.00 56 1019.9
20260507061459 70 286 2.0 5.0 0.00 0.00 0.00 55 1019.8
20260507060957 70 82 2.0 6.0 0.00 0.00 0.00 55 1019.8
20260507060454 68 306 0.0 4.0 0.00 0.00 0.00 59 1020.0
20260507055950 68 330 2.0 2.0 0.00 0.00 0.00 60 1020.0
20260507055445 68 340 2.0 4.0 0.00 0.00 0.00 60 1020.0
20260507054943 67 335 3.0 4.0 0.00 0.00 0.00 61 1020.0
20260507054438 68 308 2.0 3.0 0.00 0.00 0.00 60 1020.1
20260507053936 67 11 2.0 4.0 0.00 0.00 0.00 61 1020.1
20260507053433 67 344 0.0 3.0 0.00 0.00 0.00 62 1019.9
20260507052932 66 321 3.0 6.0 0.00 0.00 0.00 62 1019.9
20260507052429 66 323 2.0 4.0 0.00 0.00 0.00 62 1019.9
20260507051926 66 325 1.0 4.0 0.00 0.00 0.00 62 1019.9
20260507051424 66 320 3.0 5.0 0.00 0.00 0.00 63 1020.0
20260507050920 65 313 1.0 4.0 0.00 0.00 0.00 65 1019.8
20260507050417 65 358 2.0 4.0 0.00 0.00 0.00 65 1019.7
20260507045914 65 318 3.0 3.0 0.00 0.00 0.00 66 1019.9
20260507045410 64 319 3.0 3.0 0.00 0.00 0.00 66 1020.0
20260507044903 65 290 0.0 2.0 0.00 0.00 0.00 66 1019.8
20260507044359 65 55 0.0 2.0 0.00 0.00 0.00 66 1020.1
20260507043855 64 319 2.0 2.0 0.00 0.00 0.00 68 1019.9
20260507043352 63 356 2.0 4.0 0.00 0.00 0.00 67 1019.8
20260507042848 62 74 2.0 4.0 0.00 0.00 0.00 69 1019.8
20260507042344 62 310 2.0 3.0 0.00 0.00 0.00 69 1019.7
20260507041841 62 309 1.0 4.0 0.00 0.00 0.00 70 1019.8
20260507041337 62 302 1.0 3.0 0.00 0.00 0.00 70 1019.7
20260507040835 62 0 1.0 3.0 0.00 0.00 0.00 69 1019.9
20260507040331 62 357 0.0 2.0 0.00 0.00 0.00 69 1019.6
20260507035827 62 313 2.0 2.0 0.00 0.00 0.00 70 1019.6
20260507035322 62 326 0.0 2.0 0.00 0.00 0.00 69 1019.6
20260507034820 62 352 2.0 3.0 0.00 0.00 0.00 69 1019.5
20260507034317 62 354 1.0 2.0 0.00 0.00 0.00 70 1019.3
20260507033815 60 6 0.0 2.0 0.00 0.00 0.00 72 1019.4
20260507033313 60 26 0.0 2.0 0.00 0.00 0.00 73 1019.2
20260507032809 59 314 1.0 2.0 0.00 0.00 0.00 76 1019.3
20260507032306 58 320 1.0 2.0 0.00 0.00 0.00 78 1019.4
20260507031802 56 312 1.0 2.0 0.00 0.00 0.00 81 1019.3
20260507031259 55 285 0.0 2.0 0.00 0.00 0.00 82 1019.2
20260507030755 55 311 1.0 2.0 0.00 0.00 0.00 82 1019.1
20260507030253 55 328 2.0 2.0 0.00 0.00 0.00 82 1018.9
20260507025750 55 325 2.0 2.0 0.00 0.00 0.00 82 1018.9
20260507025247 55 330 0.0 2.0 0.00 0.00 0.00 82 1018.9
20260507024745 55 318 2.0 2.0 0.00 0.00 0.00 81 1018.8
20260507024242 55 323 2.0 2.0 0.00 0.00 0.00 81 1018.6
20260507023738 55 299 2.0 2.0 0.00 0.00 0.00 81 1019.0
20260507023235 55 4 0.0 2.0 0.00 0.00 0.00 81 1018.9
20260507022732 55 321 1.0 2.0 0.00 0.00 0.00 82 1018.8
20260507022228 55 330 1.0 2.0 0.00 0.00 0.00 82 1018.7
20260507021724 55 289 1.0 2.0 0.00 0.00 0.00 82 1018.8
20260507021220 55 317 0.0 3.0 0.00 0.00 0.00 81 1018.9
20260507020719 55 308 1.0 2.0 0.00 0.00 0.00 81 1018.7
20260507020214 55 308 1.0 2.0 0.00 0.00 0.00 81 1018.7
20260507015712 55 334 1.0 2.0 0.00 0.00 0.00 81 1018.7
20260507015209 55 310 2.0 2.0 0.00 0.00 0.00 80 1018.6
20260507014706 56 292 2.0 2.0 0.00 0.00 0.00 80 1018.7
20260507014202 56 309 2.0 2.0 0.00 0.00 0.00 80 1018.8
20260507013659 56 306 0.0 2.0 0.00 0.00 0.00 80 1018.8
20260507013157 56 306 2.0 2.0 0.00 0.00 0.00 80 1018.8
20260507012654 56 231 0.0 2.0 0.00 0.00 0.00 79 1018.6
20260507012149 56 21 0.0 2.0 0.00 0.00 0.00 80 1018.6
20260507011647 56 359 0.0 2.0 0.00 0.00 0.00 80 1018.7
20260507011143 56 26 0.0 2.0 0.00 0.00 0.00 81 1018.7
20260507010638 55 9 1.0 2.0 0.00 0.00 0.00 81 1018.7
20260507010134 55 319 1.0 2.0 0.00 0.00 0.00 81 1018.6
20260507005632 55 316 2.0 2.0 0.00 0.00 0.00 81 1018.6
20260507005128 55 29 2.0 2.0 0.00 0.00 0.00 81 1018.8
20260507004625 55 335 2.0 2.0 0.00 0.00 0.00 81 1018.7
20260507004122 55 329 2.0 3.0 0.00 0.00 0.00 81 1018.8
20260507003618 55 330 1.0 2.0 0.00 0.00 0.00 81 1019.0
20260507003113 55 310 2.0 2.0 0.00 0.00 0.00 81 1018.8
20260507002610 55 332 1.0 3.0 0.00 0.00 0.00 81 1018.8
20260507002106 55 323 2.0 2.0 0.00 0.00 0.00 81 1018.8
20260507001603 55 323 2.0 2.0 0.00 0.00 0.00 81 1018.9
20260507001101 56 316 2.0 2.0 0.00 0.00 0.00 80 1018.9
20260507000556 56 294 1.0 2.0 0.00 0.00 0.00 80 1018.7
20260507000052 56 297 2.0 3.0 0.00 0.00 0.00 79 1018.8
20260506235549 56 323 3.0 3.0 0.00 0.00 0.00 79 1018.9
20260506235044 57 350 2.0 2.0 0.00 0.00 0.00 78 1018.8
20260506234542 57 305 2.0 2.0 0.00 0.00 0.00 78 1019.0
20260506234039 57 332 2.0 2.0 0.00 0.00 0.00 78 1018.9
20260506233536 57 11 0.0 2.0 0.00 0.00 0.00 78 1019.0
20260506233033 57 321 1.0 3.0 0.00 0.00 0.00 78 1019.0
20260506232529 57 343 2.0 2.0 0.00 0.00 0.00 78 1019.0
20260506232024 57 329 0.0 2.0 0.00 0.00 0.00 78 1018.9
20260506231522 58 314 2.0 2.0 0.00 0.00 0.00 77 1018.9
20260506231020 58 22 2.0 2.0 0.00 0.00 0.00 77 1019.0
20260506230516 58 339 2.0 3.0 0.00 0.00 0.00 76 1019.1
20260506230014 58 0 1.0 3.0 0.00 0.00 0.00 76 1019.0
20260506225510 58 292 1.0 2.0 0.00 0.00 0.00 77 1019.2
20260506225006 58 0 2.0 2.0 0.00 0.00 0.00 77 1019.0
20260506224503 58 16 2.0 2.0 0.00 0.00 0.00 77 1019.2
20260506224000 58 303 2.0 2.0 0.00 0.00 0.00 77 1019.0
20260506223456 58 346 2.0 2.0 0.00 0.00 0.00 76 1019.1
20260506222953 59 313 2.0 2.0 0.00 0.00 0.00 76 1019.1
20260506222449 59 358 1.0 3.0 0.00 0.00 0.00 76 1019.4
20260506221946 59 354 1.0 4.0 0.00 0.00 0.00 76 1019.2
20260506221443 58 28 1.0 2.0 0.00 0.00 0.00 77 1019.3
20260506220936 58 311 1.0 2.0 0.00 0.00 0.00 77 1019.4
20260506220431 59 309 0.0 2.0 0.00 0.00 0.00 76 1019.2
20260506215928 59 310 0.0 2.0 0.00 0.00 0.00 76 1019.4
20260506215424 59 340 1.0 2.0 0.00 0.00 0.00 76 1019.6
20260506214920 59 329 0.0 2.0 0.00 0.00 0.00 75 1019.5
20260506214417 59 302 1.0 2.0 0.00 0.00 0.00 75 1019.5
20260506213915 60 297 1.0 2.0 0.00 0.00 0.00 74 1019.6
20260506213412 60 353 1.0 2.0 0.00 0.00 0.00 74 1019.5
20260506212910 60 322 0.0 2.0 0.00 0.00 0.00 74 1019.5
20260506212405 60 322 0.0 2.0 0.00 0.00 0.00 74 1019.5
20260506211900 60 324 0.0 1.0 0.00 0.00 0.00 74 1019.7
20260506211356 60 10 1.0 2.0 0.00 0.00 0.00 74 1019.7
20260506210854 60 292 0.0 1.0 0.00 0.00 0.00 74 1019.7
20260506210350 59 315 0.0 2.0 0.00 0.00 0.00 75 1019.7
20260506205848 59 313 0.0 1.0 0.00 0.00 0.00 75 1019.7
20260506205344 59 269 0.0 1.0 0.00 0.00 0.00 75 1019.7
20260506204840 60 315 2.0 2.0 0.00 0.00 0.00 75 1020.0
20260506204338 60 314 1.0 2.0 0.00 0.00 0.00 75 1019.7
20260506203835 60 323 1.0 2.0 0.00 0.00 0.00 74 1019.9
20260506203332 60 309 0.0 2.0 0.00 0.00 0.00 74 1019.7
20260506202829 60 321 0.0 2.0 0.00 0.00 0.00 74 1019.7
20260506202326 60 314 1.0 2.0 0.00 0.00 0.00 73 1019.8
20260506201823 60 322 0.0 2.0 0.00 0.00 0.00 73 1019.9
20260506201320 60 322 2.0 2.0 0.00 0.00 0.00 73 1019.9
20260506200817 61 320 1.0 2.0 0.00 0.00 0.00 73 1019.9
20260506200313 61 304 1.0 2.0 0.00 0.00 0.00 73 1019.8
20260506195809 61 319 2.0 2.0 0.00 0.00 0.00 73 1019.9
20260506195306 61 307 2.0 2.0 0.00 0.00 0.00 73 1020.0
20260506194804 61 317 1.0 2.0 0.00 0.00 0.00 73 1019.7
20260506194300 61 294 1.0 2.0 0.00 0.00 0.00 72 1019.9
20260506193758 61 313 1.0 2.0 0.00 0.00 0.00 72 1019.8
20260506193254 61 300 1.0 2.0 0.00 0.00 0.00 73 1019.8
20260506192750 61 316 2.0 2.0 0.00 0.00 0.00 72 1019.7
20260506192248 61 306 1.0 2.0 0.00 0.00 0.00 72 1019.8
20260506191744 61 297 1.0 1.0 0.00 0.00 0.00 72 1019.8
20260506191240 61 294 1.0 1.0 0.00 0.00 0.00 72 1019.8
20260506190738 61 289 2.0 2.0 0.00 0.00 0.00 72 1019.9
20260506190234 61 289 1.0 2.0 0.00 0.00 0.00 72 1019.8
20260506185731 61 274 1.0 1.0 0.00 0.00 0.00 72 1019.9
20260506185228 61 295 1.0 2.0 0.00 0.00 0.00 72 1019.7
20260506184725 61 269 0.0 1.0 0.00 0.00 0.00 72 1019.8
20260506184222 61 290 1.0 2.0 0.00 0.00 0.00 72 1019.8
20260506183719 61 286 1.0 2.0 0.00 0.00 0.00 72 1019.8
20260506183215 61 299 0.0 2.0 0.00 0.00 0.00 72 1019.7
20260506182712 61 291 1.0 2.0 0.00 0.00 0.00 71 1019.6
20260506182209 62 285 1.0 2.0 0.00 0.00 0.00 71 1019.5
20260506181707 61 283 2.0 2.0 0.00 0.00 0.00 72 1019.6
20260506181204 61 293 1.0 2.0 0.00 0.00 0.00 72 1019.4
20260506180701 62 291 1.0 2.0 0.00 0.00 0.00 71 1019.4
20260506180157 62 300 1.0 3.0 0.00 0.00 0.00 71 1019.3
20260506175654 62 274 2.0 2.0 0.00 0.00 0.00 71 1019.2
20260506175150 62 294 2.0 3.0 0.00 0.00 0.00 71 1019.2
20260506174648 62 288 2.0 2.0 0.00 0.00 0.00 70 1019.3
20260506174144 62 274 0.0 3.0 0.00 0.00 0.00 70 1019.2
20260506173643 62 301 2.0 3.0 0.00 0.00 0.00 70 1019.3
20260506173134 62 303 0.0 2.0 0.00 0.00 0.00 70 1019.1
20260506172631 62 301 0.0 2.0 0.00 0.00 0.00 70 1019.1
20260506172127 62 278 1.0 3.0 0.00 0.00 0.00 70 1019.1
20260506171625 62 327 2.0 3.0 0.00 0.00 0.00 70 1019.0
20260506171122 62 302 2.0 2.0 0.00 0.00 0.00 70 1019.0
20260506170619 62 300 2.0 3.0 0.00 0.00 0.00 69 1019.1
20260506170116 63 291 1.0 2.0 0.00 0.00 0.00 69 1019.0
20260506165615 63 341 0.0 2.0 0.00 0.00 0.00 68 1019.0
20260506165111 63 298 0.0 3.0 0.00 0.00 0.00 68 1018.9
20260506164608 63 318 2.0 3.0 0.00 0.00 0.00 67 1018.7
20260506164106 64 274 2.0 3.0 0.00 0.00 0.00 67 1018.7
20260506163601 64 281 2.0 5.0 0.00 0.00 0.00 66 1018.7
20260506163057 64 324 1.0 4.0 0.00 0.00 0.00 66 1018.6
20260506162553 64 292 2.0 4.0 0.00 0.00 0.00 65 1018.7
20260506162045 64 320 2.0 4.0 0.00 0.00 0.00 64 1018.6
20260506161543 64 277 2.0 4.0 0.00 0.00 0.00 65 1018.5
20260506161039 65 282 0.0 4.0 0.00 0.00 0.00 64 1018.6
20260506160537 65 297 0.0 5.0 0.00 0.00 0.00 63 1018.3
20260506160033 65 321 0.0 5.0 0.00 0.00 0.00 62 1018.5
20260506155532 65 242 1.0 4.0 0.00 0.00 0.00 62 1018.5
20260506153704 66 278 2.0 4.0 0.00 0.00 0.00 62 1018.1
20260506153201 66 299 5.0 5.0 0.00 0.00 0.00 61 1018.1
20260506152658 66 281 2.0 5.0 0.00 0.00 0.00 60 1018.2
20260506152155 67 243 2.0 4.0 0.00 0.00 0.00 61 1018.2
20260506151654 67 194 2.0 8.0 0.00 0.00 0.00 59 1018.1
20260506151150 67 328 4.0 11.0 0.00 0.00 0.00 59 1018.0
20260506150647 67 312 1.0 8.0 0.00 0.00 0.00 60 1018.1
20260506150144 67 258 3.0 6.0 0.00 0.00 0.00 59 1018.0
20260506145641 68 289 1.0 4.0 0.00 0.00 0.00 61 1018.0
20260506145138 68 342 3.0 6.0 0.00 0.00 0.00 61 1018.1
20260506144636 68 305 1.0 5.0 0.00 0.00 0.00 60 1018.1
20260506144132 68 283 2.0 3.0 0.00 0.00 0.00 58 1018.0
20260506143630 68 296 2.0 5.0 0.00 0.00 0.00 57 1018.1
20260506143127 69 289 3.0 6.0 0.00 0.00 0.00 57 1018.2
20260506142626 69 315 2.0 6.0 0.00 0.00 0.00 58 1018.1
20260506142123 69 305 3.0 5.0 0.00 0.00 0.00 56 1018.1
20260506141621 69 248 1.0 6.0 0.00 0.00 0.00 58 1018.1
20260506141119 69 346 2.0 5.0 0.00 0.00 0.00 57 1018.0
20260506140616 69 295 2.0 5.0 0.00 0.00 0.00 57 1018.3
20260506140113 69 314 3.0 6.0 0.00 0.00 0.00 56 1018.1
20260506135610 69 276 3.0 4.0 0.00 0.00 0.00 57 1018.1
20260506135106 70 285 2.0 6.0 0.00 0.00 0.00 54 1018.1
20260506134603 70 322 2.0 8.0 0.00 0.00 0.00 54 1018.1
20260506134058 70 288 3.0 4.0 0.00 0.00 0.00 55 1017.8
20260506133556 71 286 0.0 5.0 0.00 0.00 0.00 55 1018.1
20260506133053 70 305 2.0 5.0 0.00 0.00 0.00 56 1018.0
20260506132550 71 292 5.0 6.0 0.00 0.00 0.00 55 1018.1
20260506132047 71 311 3.0 7.0 0.00 0.00 0.00 55 1018.3
20260506131545 71 357 2.0 6.0 0.00 0.00 0.00 55 1018.2
20260506131041 71 292 2.0 6.0 0.00 0.00 0.00 54 1018.3
20260506130538 71 319 2.0 10.0 0.00 0.00 0.00 55 1018.3
20260506130035 72 318 2.0 5.0 0.00 0.00 0.00 55 1018.3
20260506125533 73 261 2.0 4.0 0.00 0.00 0.00 54 1018.3
20260506125031 72 266 2.0 5.0 0.00 0.00 0.00 54 1018.7
20260506124529 71 302 3.0 8.0 0.00 0.00 0.00 57 1018.8
20260506124026 73 291 4.0 5.0 0.00 0.00 0.00 52 1018.9
20260506123524 73 287 4.0 5.0 0.00 0.00 0.00 51 1019.0
20260506123022 73 294 4.0 7.0 0.00 0.00 0.00 53 1018.9
20260506122518 73 234 4.0 9.0 0.00 0.00 0.00 53 1019.0
20260506122016 73 291 6.0 6.0 0.00 0.00 0.00 53 1018.9
20260506121514 74 221 7.0 9.0 0.00 0.00 0.00 49 1018.9
20260506121010 73 323 2.0 4.0 0.00 0.00 0.00 53 1018.9
20260506120508 75 0 1.0 6.0 0.00 0.00 0.00 50 1018.9
20260506120005 75 200 2.0 6.0 0.00 0.00 0.00 50 1019.1
20260506115502 73 301 2.0 12.0 0.00 0.00 0.00 54 1019.0
20260506115001 75 230 3.0 8.0 0.00 0.00 0.00 49 1018.9
20260506114458 72 327 4.0 7.0 0.00 0.00 0.00 55 1019.1
20260506113956 72 322 4.0 7.0 0.00 0.00 0.00 54 1019.0
20260506113454 70 261 2.0 6.0 0.00 0.00 0.00 58 1019.0
20260506112950 71 329 3.0 7.0 0.00 0.00 0.00 55 1019.0
20260506112448 71 212 4.0 6.0 0.00 0.00 0.00 55 1019.1
20260506111945 75 229 3.0 8.0 0.00 0.00 0.00 51 1019.3
20260506111443 73 295 4.0 4.0 0.00 0.00 0.00 52 1019.2
20260506110940 73 205 2.0 3.0 0.00 0.00 0.00 50 1019.1
20260506110438 72 323 4.0 8.0 0.00 0.00 0.00 52 1019.3
20260506105934 70 223 2.0 11.0 0.00 0.00 0.00 52 1019.3
20260506105430 71 223 2.0 5.0 0.00 0.00 0.00 53 1019.1
20260506104928 71 254 0.0 4.0 0.00 0.00 0.00 55 1019.3
20260506104426 71 308 4.0 4.0 0.00 0.00 0.00 57 1019.3
20260506103924 71 309 3.0 6.0 0.00 0.00 0.00 55 1019.3
20260506103421 70 339 0.0 2.0 0.00 0.00 0.00 55 1019.4
20260506102917 70 234 2.0 5.0 0.00 0.00 0.00 56 1019.4
20260506102416 69 287 3.0 5.0 0.00 0.00 0.00 58 1019.3
20260506101913 69 237 1.0 3.0 0.00 0.00 0.00 58 1019.5
20260506101409 68 240 3.0 6.0 0.00 0.00 0.00 58 1019.4
20260506100906 69 231 2.0 4.0 0.00 0.00 0.00 60 1019.5
20260506100404 68 211 2.0 3.0 0.00 0.00 0.00 63 1019.5
20260506095902 68 244 2.0 5.0 0.00 0.00 0.00 62 1019.6